Hourly Data Report for February 05, 2003

SHERBROOKE A
QUEBEC

45°26'00.000" N
71°41'00.000" W
241.40 m
7028124
71610
YSC

Download Data

Hourly Data (February 2003)
Hourly Data Report for February 5, 2003
TIME
LST
Temp Definition
°C
Dew Point Definition
°C
Rel Hum Definition
%
Precip. Amount Definition
mm

Wind Dir Definition
10's deg

Wind Spd Definition
km/h
Visibility Definition
km
Stn Press Definition
kPa
Hmdx Definition


Wind Chill Definition


Weather Definition


00:00 -4.8 -8.4 76   24 22 1.6 96.08   -12 Snow
01:00 -6.1 -9.9 74   24 37 2.1 96.15   -15 Snow
02:00 -7.9 -12.1 72   26 33 1.3 96.33   -17 Snow
03:00 -9.2 -12.8 75   26 35 1.3 96.41   -19 Snow
04:00 -10.4 -14.8 70   26 32 2.1 96.62   -20 Snow
05:00 -11.4 -16.3 67   26 30 3.5 96.78   -21 Snow
06:00 -12.3 -16.8 69   26 28 2.4 96.93   -22 Snow
07:00 -13.2 -18.8 63   25 30 4.8 97.10   -24  
08:00 -13.9 -18.7 67   26 43 16.1 97.26   -26 Mostly Cloudy
09:00 -14.4 -19.4 66   25 39 16.1 97.39   -27 Mostly Cloudy
10:00 -13.8 -18.7 66   25 32 4.8 97.52   -25 Snow Showers,Blowing Snow
11:00 -13.9 -20.7 56   25 39 4.0 97.60   -26 Snow Showers,Blowing Snow
12:00 -13.5 -19.9 59   25 37 9.7 97.65   -25 Snow Showers,Blowing Snow
13:00 -12.9 -19.1 60   25 33 19.3 97.76   -24 Snow Showers
14:00 -12.8 -18.7 61   25 33 19.3 97.85   -24 Snow Showers
15:00 -12.5 -17.9 64   25 32 19.3 97.99   -23 Snow Showers
16:00 -12.9 -18.3 64   26 32 19.3 98.11   -24 Snow Showers
17:00 -13.6 -19.7 60   25 22 24.1 98.22   -23 Mainly Clear
18:00 -13.9 -20.1 59   25 22 15.0 98.37   -23  
19:00 -14.3 -21.0 57   26 28 15.0 98.47   -25  
20:00 -14.2 -21.5 54   27 24 15.0 98.56   -24  
21:00 -14.6 -22.1 53   26 20 15.0 98.65   -24  
22:00 -14.7 -23.3 48   27 24 15.0 98.71   -25  
23:00 -15.3 -23.8 48   25 19 15.0 98.81   -24  

Notes on Data Quality.

Legend

  • E = Estimated
  • M = Missing
  • NA = Not Available*
  • [empty] = Indicates an unobserved value
Date modified: